Regional Weather Roundup
Issued by NWS Charleston, SC

Current Version | Previous Version | Graphics & Text | Print | Product List | Glossary On
Versions: 1 2 3 4 5 6 7 8 9 10 11 12 13 14 15 16 17 18 19 20 21 22 23 24 25 26 27 28 29 30 31 32 33 34 35 36 37 38 39 40 41 42 43 44 45 46 47 48 49 50
429
ASUS42 KCHS 262328
RWRCHS

REGIONAL WEATHER ROUNDUP
NATIONAL WEATHER SERVICE CHARLESTON SC
700 PM EDT TUE JUL 26 2016

NOTE: "FAIR" INDICATES FEW OR NO CLOUDS BELOW 12,000 FEET WITH NO
SIGNIFICANT WEATHER AND/OR OBSTRUCTIONS TO VISIBILITY.

NOT ALL STATIONS ARE QUALITY CONTROLLED. USE DATA WITH CAUTION...
ESPECIALLY DEWPOINT OBSERVATIONS.

SCZ027-030-031-034>040-042>050-270000-
...SOUTHEAST SOUTH CAROLINA...

CITY           SKY/WX    TMP DP  RH WIND       PRES   REMARKS
N CHARLESTON   MOSUNNY   90  72  55 S15       29.98S HX  97
WATERFRONT PRK   N/A     88  78  72 S12       29.97F HX 101
MOUNT PLEASANT FAIR      88  75  66 S9        29.98S HX  97
JOHNS ISLAND   FAIR      88  77  70 S13       29.99S HX 100
PINOPOLIS        N/A     91  75  59 VRB3      29.89S HX 102
MONCKS CORNER  FAIR      88  70  55 SW9       29.97S HX  92
SUMMERVILLE    NOT AVBL
BEAUFORT MCAS  SUNNY     91  74  57 S7G16     29.99F HX 100
BEAUFORT ARPT  FAIR      86  73  66 S9G17     29.99S HX  93
HILTON HEAD IS MOSUNNY   90  75  62 S9G16     30.01F HX 100
WALTERBORO     CLEAR     91  72  52 SW10      29.98S HX  98
ALLENDALE      FAIR      93  70  46 S6        29.96F HX  99

...SOUTHERN MIDLANDS AND PEE DEE...

CITY           SKY/WX    TMP DP  RH WIND       PRES   REMARKS
GEORGETOWN     FAIR      86  73  66 SW12      29.98F HX  93
KINGSTREE      FAIR      91  70  49 S5        29.95S HX  97
ORANGEBURG     SUNNY     95  68  41 SW9       29.96F HX  99
BARNWELL       NOT AVBL
AIKEN          FAIR      91  63  38 S9        30.00S HX  92
MANNING        FAIR      91  73  55 S5        29.96R HX 100
COLUMBIA       MOSUNNY   97  68  38 S12       29.94S HX 102
SUMTER         SUNNY     95  69  42 S13       29.93S HX 100
FLORENCE       SUNNY     94  71  47 SW8       29.95S HX 101
MYRTLE BEACH   SUNNY     90  72  55 SW17      29.98S HX  96
N MYRTLE BEACH SUNNY     86  76  71 SW18G26   29.96F HX  96

$$

GAZ063-065-086>088-099>101-113>116-118-119-134>141-150-270000-
...SOUTHEAST GEORGIA...

CITY           SKY/WX    TMP DP  RH WIND       PRES   REMARKS
SAVANNAH ARPT  MOSUNNY   90  72  55 S14       30.00F HX  97
HUNTER AAF     SUNNY     87  77  72 SE9       29.98F HX  99
FORT STEWART   MOSUNNY   89  76  65 SE7       29.97F HX  99
STATESBORO     SUNNY     92  74  55 S5        29.99S HX 102
SYLVANIA       NOT AVBL
CLAXTON        FAIR      91  74  56 E5        29.99R HX 100

...CSRA...CENTRAL AND FAR SOUTHEAST GEORGIA...

CITY           SKY/WX    TMP DP  RH WIND       PRES   REMARKS
THOMSON        NOT AVBL
AUGUSTA-BUSH   SUNNY     97  66  36 S12       29.94F HX 100
AUGUSTA-DANIEL SUNNY     98  62  30 SW7       29.97F HX  99
SWAINSBORO     FAIR      91  68  46 S5        29.99F HX  95
VIDALIA        CLOUDY    90  72  55 CALM      29.99S HX  96
EASTMAN        FAIR      90  62  38 W6        30.02R HX  90
HAZLEHURST     FAIR      90  75  62 SW10G18   29.99R HX 101
ALMA           MOSUNNY   90  72  55 SW12G21   30.00S HX  97
WAYCROSS       CLOUDY    90  76  64 W9        30.01S HX 101
JESUP          CLOUDY    91  79  66 S3        30.00R HX 107
BAXLEY         FAIR      91  77  62 W10G18    30.00R HX 105
BRUNSWICK      SUNNY     90  79  70 SE9       30.01S HX 105
SAINT SIMONS   SUNNY     88  76  67 S10       30.00F HX  99

$$

SCZ027-028-034-036>038-045-046-048>050-GAZ119-141-270000-
...LAKE AND SUPPLEMENTAL COASTAL OBSERVATIONS...

STATION/POSITION TIME  TEMP    WIND        PRES    WAVE   SWELL
                       AIR SEA DIR/SP/G            HT/PER HT/PER/DIR
                 (UTC) (F)     (DEG/KT/KT) (MB)    (FT/S) (FT/S/D)
WINYAH BAY       2245   89     220/ 12     1014.0F
LAKE MURRAY      NOT AVBL
ACE BASIN NERRS  2200   90     170/  1     1016.0S
FORT PULASKI     2200   87 88                N/A
SAPELO ISLAND    2300   90     160/ 10     1016.0S

$$

ANZ835-935-AMZ111-154-330-350-352-354-370-450-454-472-270000-
...C-MAN AND BUOY OBSERVATIONS...

STATION/POSITION TIME  TEMP    WIND        PRES    WAVE   SWELL
                       AIR SEA DIR/SP/G            HT/PER HT/PER/DIR
                 (UTC) (F)     (DEG/KT/KT) (MB)    (FT/S) (FT/S/D)
BUOY 41004       2250   86 86  210/ 16/ 17 1015.2F   3/ 4   2/130/ 8
BUOY 41008       2250   86 88  150/ 12/ 14 1016.0F   2/ 5
FOLLY BEACH CMAN 2300   86     210/ 17/ 19 1015.7F
CAPERS NEARSHORE 2308   85 84  220/ 16/ 21 1015.3F
FRIPP NEARSHORE  2308   86 87  200/ 16/ 19 1014.8F


STATION/POSITION TIME  TEMP    WIND        PRES    WAVE   SWELL
                       AIR SEA DIR/SP/G            HT/PER HT/PER/DIR
                 (UTC) (F)     (DEG/KT/KT) (MB)    (FT/S) (FT/S/D)
5E ST. MARYS GA  2301      86                N/A     2/ 3
FRYING PAN BUOY  2300   85 85  210/ 16/ 19 1014.9F
BUOY 41025       2250   85 85  230/ 17/ 21 1014.2R   5/ 6
CAPE LOOKOUT NC  2300   85     220/ 11/ 15 1014.7R
BUOY 41002       2250   84 85  260/  8/ 10 1017.1F   2/ 7   2/140/ 7
BUOY 41010       2220   86 87  180/  6/  8 1017.8F
ST AUGUSTINE FL  2300   85 88  150/ 14/ 16 1017.3F


$$




USA.gov is the U.S. government's official web portal to all federal, state and local government web resources and services.